[[{"header":{"parameterUnit":"m.s-1","parameterCategory":1,"la1":30.2991,"la2":30.254,"lo1":-89.0895,"lo2":-89.0444,"dy":0.0017,"dx":0.0017,"nx":28,"ny":28,"refTime":"2025-01-05T03:00:00:Z","depth":0,"parameterNumber":2,"parameterNumberName":"U-component_of_WINDS"},"data":[0,0,0,0,0,0,0,0,0,0,0,0,0,0,0,0,0,0,0,0,0,0,0,0,0,0,0,0,0,0,0,0,0,0,0,0,0,0,0,0,0,0,0,0,0,0,0,0,0,0,0,0,0,0,0,0,0,0,3.7632,3.7632,0,3.7671,3.7671,3.7672,3.762,3.7618,3.7616,3.7614,3.7652,3.7655,3.7658,0,0,0,0,0,0,0,0,0,0,0,0,0,3.7511,3.7514,3.7632,3.7632,3.7633,3.7671,3.7671,3.7672,3.762,3.7618,3.7616,3.7613,3.7652,3.7655,3.7658,0,0,0,0,0,0,0,0,0,0,0,0,0,3.7558,3.7514,3.7631,3.7611,3.761,3.7671,3.7671,3.7672,3.7621,3.7618,3.7615,3.7612,3.765,3.7654,3.7659,3.774,0,0,3.7671,3.7673,0,0,0,0,0,0,0,0,3.7556,3.7563,3.7614,3.7613,3.7611,3.7638,3.7643,3.7695,3.7621,3.7617,3.7614,3.7611,3.765,3.7654,3.7667,3.7742,3.7744,3.7672,3.7674,3.7676,3.7677,0,0,0,0,0,0,0,3.7552,3.7561,3.7647,3.7615,3.7613,3.76,3.7604,3.7652,3.7648,3.7617,3.7613,3.7619,3.7648,3.7663,3.7668,3.7744,3.7671,3.7675,3.7678,3.7679,3.789,3.7892,0,0,0,0,0,0,3.7552,3.7558,3.7646,3.7648,3.7576,3.7605,3.7609,3.7632,3.7648,3.7647,3.7621,3.7616,3.7658,3.7663,3.7669,3.7766,3.7676,3.768,3.7682,3.7886,3.789,3.7894,0,0,0,0,0,0,3.7549,3.756,3.7644,3.7602,3.7612,3.761,3.7636,3.7634,3.7649,3.7651,3.765,3.7637,3.7656,3.7663,3.7723,3.7767,3.7682,3.7685,3.7883,3.7888,3.7892,3.7961,0,0,0,0,0,0,3.7546,3.7559,3.759,3.7603,3.7615,3.7698,3.7639,3.7637,3.7657,3.765,3.7665,3.7665,3.7654,3.7717,3.7727,3.7771,3.7689,3.7879,3.7885,3.789,3.7955,3.7967,3.7978,0,0,0,0,0,3.7542,3.7607,3.7592,3.7603,3.7653,3.7701,3.7707,3.7693,3.766,3.7691,3.7693,3.7665,3.7761,3.7724,3.7735,3.778,3.7876,3.7883,3.789,3.7949,3.7965,3.7978,0,0,0,0,0,0,3.7598,3.7609,3.7592,3.7663,3.7682,3.7692,3.7731,3.771,3.7737,3.7731,3.7712,3.7716,3.7781,3.7786,3.7745,3.7861,3.7813,3.7822,3.7854,3.7869,3.7881,3.7877,3.7692,0,0,0,0,0,3.7619,3.7657,3.7664,3.7727,3.7737,3.7733,3.7753,3.7741,3.7759,3.7766,3.7772,3.779,3.7824,3.7847,3.7879,3.7956,3.7959,3.7993,3.8004,3.8014,3.8022,3.8064,3.808,3.7917,3.7916,3.7916,0,0,3.7662,3.7673,3.7698,3.7739,3.7751,3.7791,3.7739,3.7783,3.7813,3.7772,3.783,3.7836,3.7854,3.7924,3.7955,3.7931,3.8068,3.8023,3.803,3.8033,3.8073,3.8089,3.8102,3.7921,3.792,3.792,0,0,3.7761,3.7773,3.7827,3.7842,3.7862,3.7859,3.7873,3.7887,3.7889,3.7947,3.7918,3.7953,3.8012,3.8027,3.8042,3.8151,3.8126,3.8161,3.8222,3.8264,3.8277,3.8288,3.8327,3.8341,3.817,3.817,3.817,0,3.7811,3.7871,3.7857,3.7904,3.7923,3.789,3.7945,3.796,3.7989,3.8003,3.7976,3.8052,3.8062,3.8135,3.8162,3.8175,3.819,3.8159,3.8276,3.8287,3.8298,3.8334,3.8349,3.8174,3.8174,3.8173,3.8173,0,3.7933,3.7975,3.8016,3.8047,3.8071,3.8121,3.8115,3.8141,3.8128,3.8128,3.8188,3.82,3.8234,3.8251,3.8238,3.8323,3.8308,3.8279,3.823,3.8318,3.8352,3.8366,3.818,3.8178,3.8177,3.8176,0,0,3.8066,3.8091,3.8106,3.812,3.8142,3.8174,3.8224,3.8258,3.8281,3.8304,3.8345,3.8397,3.8371,3.8389,3.8378,3.8415,3.85,3.8381,3.8381,3.8403,3.8596,3.8617,3.8633,3.8485,3.8487,3.8489,3.8594,0,3.8165,3.8252,3.8242,3.8324,3.8363,3.8334,3.8378,3.8396,3.8398,3.8431,3.8433,3.8471,3.8433,3.8444,3.8479,3.8482,3.8539,3.8475,3.8523,3.8525,3.8518,3.8651,3.8673,3.8771,3.8607,3.861,3.8611,0,3.8292,3.832,3.8407,3.8425,3.8441,3.848,3.8512,3.8544,3.8565,3.8564,3.8585,3.8568,3.8618,3.857,3.8639,3.8596,3.8616,3.862,3.8624,3.8627,3.8572,3.8658,3.8802,3.8817,3.8632,3.863,3.8629,0,3.838,3.8441,3.8501,3.8514,3.8536,3.8564,3.8575,3.8593,3.8615,3.8643,3.8657,3.869,3.8708,3.8734,3.8727,3.8692,3.8798,3.8749,3.8798,3.8799,3.8821,3.8819,3.897,3.8835,3.8834,3.8834,3.8834,0,3.8492,3.8546,3.8541,3.8578,3.8639,3.8627,3.8687,3.8694,3.8711,3.8749,3.8725,3.8761,3.875,3.8785,3.878,3.8838,3.8847,3.8847,3.8845,3.8849,3.8849,3.886,3.8853,3.8838,3.8837,3.8836,3.8836,0,3.86,3.8599,3.8663,3.8679,3.8685,3.8729,3.8743,3.8778,3.8779,3.8827,3.8838,3.884,3.8881,3.8876,3.8922,3.8918,3.8991,3.8981,3.8984,3.8982,3.9032,3.9027,3.9195,3.9216,3.9067,3.9069,3.907,0,3.8671,3.8712,3.8734,3.8759,3.8771,3.881,3.8833,3.8824,3.8849,3.8877,3.8909,3.8948,3.8979,3.9046,3.9051,3.9086,3.9076,3.9132,3.9081,3.9084,3.9077,3.9074,3.9078,3.9142,3.9144,3.9145,3.9146,0,3.8797,3.8795,3.8829,3.8865,3.8893,3.892,3.8944,3.8965,3.8959,3.8988,3.903,3.9054,3.9102,3.9141,3.9175,3.9185,3.9165,3.9163,3.9176,3.918,3.9181,3.9181,3.9012,3.9159,3.9157,3.9156,3.9156,3.9155,3.8889,3.8925,3.8946,3.8986,3.9004,3.9028,3.9062,3.9068,3.9104,3.9142,3.9135,3.9183,3.9204,3.9247,3.9261,3.9298,3.9278,3.9297,3.9302,3.9307,3.9313,3.9176,3.9304,3.9304,3.9304,3.9303,3.9303,0,3.9013,3.9026,3.9063,3.9099,3.9131,3.9111,3.9137,3.9164,3.9207,3.9229,3.926,3.931,3.9348,3.9357,3.9394,3.9423,3.9414,3.9433,3.943,3.9433,3.9329,3.9313,3.9439,3.9439,3.9439,3.9439,3.9439,3.9439,3.9082,3.9142,3.9143,3.9213,3.9225,3.9273,3.929,3.9312,3.9329,3.9386,3.9418,3.9425,3.9442,3.948,3.9515,3.9517,3.9531,3.9553,3.9551,3.9454,3.944,3.9427,3.9413,3.9556,3.9557,3.9652,3.9653,3.9654]},{"header":{"parameterUnit":"m.s-1","parameterCategory":1,"la1":30.2991,"la2":30.254,"lo1":-89.0895,"lo2":-89.0444,"dy":0.0017,"dx":0.0017,"nx":28,"ny":28,"refTime":"2025-01-05T03:00:00:Z","depth":0,"parameterNumber":3,"parameterNumberName":"V-component_of_WINDS"},"data":[0,0,0,0,0,0,0,0,0,0,0,0,0,0,0,0,0,0,0,0,0,0,0,0,0,0,0,0,0,0,0,0,0,0,0,0,0,0,0,0,0,0,0,0,0,0,0,0,0,0,0,0,0,0,0,0,0,0,-8.1742,-8.1745,0,-8.1974,-8.1977,-8.198,-8.193,-8.1925,-8.1921,-8.1917,-8.2152,-8.2162,-8.2172,0,0,0,0,0,0,0,0,0,0,0,0,0,-8.1252,-8.1262,-8.1742,-8.1745,-8.1748,-8.1974,-8.1977,-8.198,-8.193,-8.1925,-8.192,-8.1915,-8.2148,-8.216,-8.2173,0,0,0,0,0,0,0,0,0,0,0,0,0,-8.1473,-8.1265,-8.1741,-8.175,-8.1753,-8.1973,-8.1977,-8.1981,-8.1931,-8.1925,-8.1918,-8.1912,-8.2144,-8.2159,-8.2174,-8.2399,0,0,-8.2221,-8.2228,0,0,0,0,0,0,0,0,-8.146,-8.1491,-8.1746,-8.175,-8.1754,-8.1916,-8.1891,-8.2121,-8.1933,-8.1864,-8.1917,-8.1909,-8.2078,-8.2099,-8.2156,-8.241,-8.242,-8.2223,-8.2232,-8.2239,-8.2243,0,0,0,0,0,0,0,-8.1445,-8.1481,-8.1834,-8.175,-8.1755,-8.1742,-8.1766,-8.1934,-8.2004,-8.1869,-8.1866,-8.1894,-8.2079,-8.2142,-8.2162,-8.2424,-8.2222,-8.2236,-8.2246,-8.2252,-8.2874,-8.2881,0,0,0,0,0,0,-8.1427,-8.1468,-8.1826,-8.1841,-8.1588,-8.1756,-8.1783,-8.1871,-8.2002,-8.2016,-8.19,-8.1891,-8.2119,-8.2144,-8.217,-8.2442,-8.2239,-8.2253,-8.2262,-8.2867,-8.2876,-8.2884,0,0,0,0,0,0,-8.1417,-8.1459,-8.1817,-8.1654,-8.1698,-8.1771,-8.187,-8.1879,-8.1941,-8.2026,-8.2038,-8.1951,-8.2114,-8.2148,-8.2343,-8.245,-8.226,-8.2274,-8.2858,-8.287,-8.288,-8.2989,0,0,0,0,0,0,-8.1403,-8.1456,-8.1543,-8.1656,-8.1707,-8.1988,-8.1877,-8.1888,-8.1968,-8.1959,-8.2077,-8.209,-8.2112,-8.232,-8.2358,-8.2467,-8.2286,-8.2849,-8.2863,-8.2876,-8.2976,-8.3002,-8.3024,0,0,0,0,0,-8.1385,-8.1563,-8.1547,-8.1591,-8.1817,-8.1994,-8.2023,-8.2045,-8.1977,-8.2065,-8.2119,-8.2086,-8.2432,-8.2341,-8.2383,-8.2498,-8.2842,-8.2859,-8.2875,-8.2965,-8.2997,-8.3024,0,0,0,0,0,0,-8.1459,-8.1578,-8.1562,-8.1782,-8.1878,-8.1985,-8.2096,-8.2078,-8.2195,-8.2182,-8.2204,-8.2231,-8.243,-8.2483,-8.238,-8.2723,-8.2627,-8.2653,-8.2681,-8.2712,-8.2736,-8.2719,-8.2299,0,0,0,0,0,-8.1501,-8.1636,-8.1732,-8.1917,-8.1966,-8.2023,-8.2101,-8.211,-8.221,-8.225,-8.2318,-8.2416,-8.2547,-8.2632,-8.2757,-8.2983,-8.3008,-8.3084,-8.3108,-8.3127,-8.3149,-8.3273,-8.3308,-8.2937,-8.2937,-8.2937,0,0,-8.1589,-8.1671,-8.1754,-8.1934,-8.2009,-8.2147,-8.2057,-8.2207,-8.2309,-8.2272,-8.2461,-8.2515,-8.2625,-8.2837,-8.2934,-8.2888,-8.3257,-8.3148,-8.3163,-8.3175,-8.3294,-8.3329,-8.336,-8.2949,-8.2946,-8.2945,0,0,-8.182,-8.1896,-8.2058,-8.2136,-8.2252,-8.2289,-8.2328,-8.2439,-8.2473,-8.2663,-8.2639,-8.276,-8.2984,-8.3064,-8.3134,-8.3397,-8.3371,-8.3436,-8.3563,-8.3684,-8.3713,-8.3739,-8.3833,-8.3866,-8.3458,-8.3458,-8.3458,0,-8.1915,-8.2122,-8.2144,-8.2297,-8.2376,-8.235,-8.2515,-8.2589,-8.274,-8.2795,-8.2742,-8.3024,-8.3096,-8.3327,-8.3391,-8.3448,-8.3493,-8.3423,-8.3707,-8.3734,-8.3758,-8.3848,-8.3883,-8.3465,-8.3465,-8.3464,-8.3463,0,-8.2233,-8.2377,-8.2495,-8.2642,-8.2735,-8.2893,-8.2938,-8.3029,-8.303,-8.3072,-8.3266,-8.3352,-8.3494,-8.355,-8.3552,-8.3781,-8.3749,-8.3702,-8.3606,-8.38,-8.3885,-8.392,-8.3476,-8.3473,-8.3471,-8.3469,0,0,-8.2517,-8.2675,-8.2718,-8.2785,-8.2911,-8.3023,-8.3179,-8.332,-8.3398,-8.3502,-8.3634,-8.3825,-8.3782,-8.3862,-8.3872,-8.3978,-8.4181,-8.3918,-8.3921,-8.3964,-8.444,-8.4475,-8.4514,-8.4165,-8.4172,-8.4177,-8.443,0,-8.276,-8.3037,-8.3061,-8.331,-8.3444,-8.3421,-8.3557,-8.365,-8.3693,-8.3812,-8.386,-8.3995,-8.3928,-8.3976,-8.408,-8.4135,-8.4277,-8.4116,-8.4287,-8.4293,-8.4261,-8.4559,-8.4597,-8.4832,-8.4464,-8.4469,-8.4473,0,-8.308,-8.3196,-8.3459,-8.3567,-8.3624,-8.3746,-8.3877,-8.3991,-8.4095,-8.4119,-8.4209,-8.4206,-8.4366,-8.4264,-8.4485,-8.4375,-8.4446,-8.4484,-8.4493,-8.451,-8.4395,-8.4584,-8.4907,-8.4943,-8.4526,-8.4521,-8.4518,0,-8.3262,-8.3483,-8.3669,-8.3727,-8.3858,-8.3945,-8.4003,-8.4101,-8.4183,-8.4297,-8.4351,-8.4482,-8.4554,-8.4654,-8.4686,-8.4609,-8.4906,-8.4807,-8.4931,-8.493,-8.4995,-8.499,-8.5334,-8.504,-8.5039,-8.5039,-8.5038,0,-8.3531,-8.3692,-8.3752,-8.3867,-8.4047,-8.4073,-8.425,-8.4304,-8.4391,-8.4515,-8.4503,-8.4619,-8.4654,-8.4776,-8.4802,-8.4981,-8.5014,-8.5037,-8.5042,-8.5039,-8.5036,-8.5086,-8.5071,-8.5048,-8.5046,-8.5044,-8.5043,0,-8.3764,-8.3811,-8.4012,-8.412,-8.4151,-8.4279,-8.4371,-8.4481,-8.4523,-8.468,-8.4718,-8.4784,-8.4927,-8.4969,-8.5141,-8.5158,-8.5369,-8.5359,-8.5335,-8.5335,-8.5457,-8.5445,-8.5845,-8.5899,-8.5569,-8.5572,-8.5575,0,-8.3933,-8.4057,-8.4179,-8.4262,-8.4324,-8.4457,-8.4542,-8.4572,-8.4661,-8.4789,-8.4884,-8.5026,-8.5141,-8.5371,-8.5433,-8.5565,-8.5558,-8.5689,-8.5577,-8.557,-8.556,-8.5553,-8.5566,-8.571,-8.5714,-8.5716,-8.5719,0,-8.4228,-8.4245,-8.4369,-8.4501,-8.4603,-8.4708,-8.4809,-8.4878,-8.4922,-8.5022,-8.517,-8.5259,-8.5436,-8.5577,-8.571,-8.5769,-8.5752,-8.5754,-8.5789,-8.5787,-8.5768,-8.5781,-8.5393,-8.5744,-8.5742,-8.574,-8.5738,-8.5737,-8.4435,-8.4544,-8.4647,-8.4785,-8.4865,-8.496,-8.5069,-8.5125,-8.5249,-8.5395,-8.5405,-8.5565,-8.5665,-8.5843,-8.5909,-8.6034,-8.5995,-8.6047,-8.606,-8.6073,-8.6083,-8.5748,-8.6058,-8.6058,-8.6057,-8.6056,-8.6056,0,-8.473,-8.4795,-8.4922,-8.5064,-8.5173,-8.5148,-8.5259,-8.5351,-8.5492,-8.5588,-8.5702,-8.5872,-8.6009,-8.6082,-8.6218,-8.6304,-8.63,-8.6339,-8.6333,-8.6347,-8.611,-8.6065,-8.634,-8.634,-8.634,-8.634,-8.634,-8.634,-8.4896,-8.508,-8.5109,-8.5333,-8.5397,-8.5554,-8.5619,-8.5707,-8.5784,-8.5974,-8.6088,-8.6135,-8.6223,-8.6365,-8.6489,-8.6507,-8.6558,-8.6602,-8.6616,-8.6393,-8.6364,-8.6336,-8.6294,-8.6613,-8.6613,-8.6843,-8.6845,-8.6846]}]]